Regional Weather Roundup
Issued by NWS

Home | Current Version | Previous Version | Graphics & Text | Print | Product List | Glossary On
Versions: 1 2 3 4 5 6 7 8 9 10 11 12 13 14 15 16 17 18 19 20 21 22 23 24 25 26 27 28 29 30 31 32 33 34 35 36 37 38 39 40 41 42 43 44 45 46 47 48 49 50
000
ASUS43 KDTX 281601
RWRMI
MICHIGAN HOURLY REGIONAL WEATHER ROUNDUP
NATIONAL WEATHER SERVICE DETROIT/PONTIAC MI
1100 AM EST FRI NOV 28 2014

NOTE: "FAIR" INDICATES FEW OR NO CLOUDS BELOW 12,000 FEET WITH NO
SIGNIFICANT WEATHER AND/OR OBSTRUCTION TO VISIBILITY.

MIZ047>049-052>055-059>063-066>070-074>076-081>083-281700-
SOUTHEAST LOWER MICHIGAN

CITY           SKY/WX    TMP DP  RH WIND       PRES   REMARKS
ADRIAN         MOSUNNY   23  16  74 S8        30.32F WCI  14
ALMA           CLOUDY    22  13  67 S9        30.27F WCI  12
ANN ARBOR      PTSUNNY   23  10  57 S6        30.31F WCI  16
BAD AXE        CLOUDY    22  11  63 W5        30.27F WCI  15
DETROIT CITY   PTSUNNY   25   9  50 SW6       30.34R WCI  18
DETROIT        PTSUNNY   23   9  55 S3        30.34S
FLINT          CLOUDY    24  10  55 SW8       30.29F WCI  15
GROSSE ILE     CLOUDY    23   9  54 CALM      30.33S
HILLSDALE      PTSUNNY   25  15  64 S7        30.26F WCI  17
HOWELL         CLOUDY    22  11  63 S9        30.28F WCI  12

CITY           SKY/WX    TMP DP  RH WIND       PRES   REMARKS
JACKSON        PTSUNNY   23  17  78 S7        30.28F WCI  15
LAMBERTVILLE   PTSUNNY   28  14  54 S6        30.33F WCI  22
LANSING        CLOUDY    23  13  65 S9        30.28F WCI  13
LAPEER         FAIR      22  10  61 SW8       30.29F WCI  12
MASON          CLOUDY    23  15  70 S9        30.28F WCI  13
MONROE         PTSUNNY   23  10  58 CALM      30.32F
PONTIAC        PTSUNNY   21   8  57 S5        30.28F WCI  15
PORT HOPE        N/A     22   8  55 SW8       30.25F WCI  12
PORT HURON     PTSUNNY   21   9  58 SW5       30.31F WCI  15
TRI CITIES     CLOUDY    23   9  55 S10       30.28F WCI  12
TROY           PTSUNNY   24   9  51 SW8       30.33F WCI  15
SAGINAW HB     CLOUDY    23  12  63 S6        30.28F WCI  16
$$
MIZ043>046-050>051-056>058-064>065-071>073-077>080-281700-
SOUTHWEST LOWER MICHIGAN

CITY           SKY/WX    TMP DP  RH WIND       PRES   REMARKS
BATTLE CREEK   CLOUDY    26  14  60 S14       30.27F WCI  14
BENTON HARBOR  CLOUDY    22  15  75 S9        30.27F WCI  12
BIG RAPIDS     FLURRIES  21  17  86 SE7       30.22S WCI  12
COLDWATER      CLOUDY    26  16  65 SW10      30.28F WCI  17
FREMONT        LGT SNOW  23  18  81 SE7       30.23F WCI  14
HOLLAND        CLOUDY    26  14  60 S13       30.25F WCI  15
GRAND RAPIDS   LGT SNOW  24  18  77 S10       30.26F WCI  14
IONIA          CLOUDY    24  18  77 S8        30.25F WCI  15
KALAMAZOO      PTSUNNY   25  16  68 S12       30.28F WCI  14
LUDINGTON      CLOUDY    21  18  87 SE8       30.22S WCI  11
MARSHALL       CLOUDY    24  16  70 S7        30.27F WCI  16
MOUNT PLEASANT CLOUDY    22  12  65 S8        30.24F WCI  13
MUSKEGON       LGT SNOW  24  19  81 SE7       30.24F VSB 3/4 WCI  16
SOUTH HAVEN    LGT SNOW  24  17  77 S10       30.27F WCI  13
$$
MIZ016>042-281700-
NORTHERN LOWER MICHIGAN

CITY           SKY/WX    TMP DP  RH WIND       PRES   REMARKS
ALPENA         CLOUDY    19  13  77 S8        30.23F WCI   9
BEAVER ISLAND  CLOUDY    24  15  69 SW9       30.19S WCI  14
BELLAIRE       CLOUDY    21  14  75 S7        30.22F WCI  12
CADILLAC       FLURRIES  18  14  85 S8        30.16F WCI   8
CHARLEVOIX     FLURRIES  23  15  73 SW6       30.22S WCI  16
FRANKFORT      FLURRIES  22  18  83 SE7       30.20S WCI  13
GAYLORD        CLOUDY    16  10  77 S9        30.17S WCI   4
GRAYLING       CLOUDY    18  12  77 S3        30.19F
HARBOR SPRINGS CLOUDY    21  16  79 S9        30.20R WCI  11
HOUGHTON LAKE  CLOUDY    18  12  77 S9        30.21S WCI   7
MANISTEE       CLOUDY    21  16  79 S6        30.22S WCI  14
OSCODA         PTSUNNY   21  12  66 SW3       30.25F
PELLSTON       LGT SNOW  19  16  88 SE3       30.20S VSB 3/4
ROGERS CITY    FLURRIES  19  16  86 S6        30.23F WCI  11
TRAVERSE CITY  CLOUDY    22  14  71 VRB5      30.21F WCI  16
$$
MIZ007>008-015-281700-
EASTERN UPPER MICHIGAN

CITY           SKY/WX    TMP DP  RH WIND       PRES   REMARKS
KINROSS        PTSUNNY   10   9  92 S5        30.20R WCI   2
MACKINAC ISLAN LGT SNOW  21  17  86 S5        30.19S WCI  14
NEWBERRY       PTSUNNY   13   5  73 SW8       30.18R WCI   1
S. S. MARIE    PTSUNNY   10   4  76 VRB3      30.23S
MUNISING         N/A     15   3  59 S5        30.18S WCI   8
$$
MIZ004>006-011>014-085-281700-
CENTRAL UPPER MICHIGAN

CITY           SKY/WX    TMP DP  RH WIND       PRES   REMARKS
MANISTIQUE     CLOUDY    15   7  70 NW6       30.19S WCI   6
ESCANABA       CLOUDY    16   7  67 W8        30.18F WCI   5
MENOMINEE      CLOUDY    16   5  62 SW7       30.18F WCI   6
SAWYER-GWINN   CLOUDY    10   3  72 SW9       30.12S WCI  -2
$$
MIZ001>003-009>011-084-281700-
WESTERN UPPER MICHIGAN

CITY           SKY/WX    TMP DP  RH WIND       PRES   REMARKS
IRON MOUNTAIN  LGT SNOW  10   4  76 S7        30.11F WCI  -1
HOUGHTON       CLOUDY     9   2  73 S6        30.08F WCI  -1
COPPER HARBOR    N/A     15   3  59 SW8       30.11F WCI   4
IRONWOOD       CLOUDY    10   7  85 E6        30.02F WCI   1
$$

ABBREVIATIONS USED IN REMARKS
   TC - TEMPERATURE IN CELSIUS
  WCI - WIND CHILL INDEX
   HX - HEAT INDEX
  VSB - VISIBILITY



USA.gov is the U.S. government's official web portal to all federal, state and local government web resources and services.